[Iaude] MPEC W94: 2022 OP6 [a=2.09,e=0.40,i=6.3,H=23.14]
    mpec at marsden.cfa.harvard.edu 
    mpec at marsden.cfa.harvard.edu
       
    Wed Nov 22 09:24:45 EST 2023
    
    
  
M.P.E.C. 2023-W94                             Issued 2023 November 22, 14:23 UT
     The Minor Planet Electronic Circulars contain information on unusual
         minor planets, routine data on comets and natural satellites,
         and occasional editorial announcements.  They are published
    on behalf of Division F of the International Astronomical Union by the
          Minor Planet Center, Smithsonian Astrophysical Observatory,
                          Cambridge, MA 02138, U.S.A.
			  
             Prepared using the Tamkin Foundation Computer Network
                              MPC at CFA.HARVARD.EDU
            URL https://www.minorplanetcenter.net/    ISSN 1523-6714
                                    2022 OP6                                    
                           Revision to MPEC 2022-P46                            
Additional Observations:
     K22O06P  C2019 07 06.56190 22 33 39.143-17 59 41.80         22.4 wUEW094F51
     K22O06P  C2019 07 06.57353 22 33 40.100-17 59 23.19         22.3 wUEW094F51
     K22O06P  C2019 07 06.58516 22 33 41.003-17 59 03.54         22.9 wUEW094F51
     K22O06P  C2019 07 06.59677 22 33 41.918-17 58 44.15         22.8 wUEW094F51
     K22O06P 5C2019 07 07.56315222 35 07.26 -17 32 07.6                WEW094T14
     K22O06P 5C2019 07 07.56433522 35 07.35 -17 32 05.7                WEW094T14
     K22O06P 5C2019 07 07.56552022 35 07.44 -17 32 03.7                WEW094T14
Observer details:
F51 Pan-STARRS 1, Haleakala.  Observers J. Bulger, T. Lowe, A. Schultz, M.
    Willman.  Measurers K. Chambers, S. Chastel, T. de Boer, L. Denneau, J.
    Fairlamb, H. Flewelling, M. Huber, C.-C. Lin, E. Magnier, Y. Ramanjooloo,
    R. Wainscoat, R. Weryk.  1.8-m Ritchey-Chretien + CCD.
T14 Canada-France-Hawaii Telescope, Maunakea.  Observer R. Wainscoat.
    Measurer S. Deen.  3.58-m Canada-France-Hawaii Telescope + CCD.
First and last observations above in comparison with prediction:
Residuals in seconds of arc (or two decimals in degrees), reference and Delta-T
190706 F51 0.26+ 0.19+    190707 T14 0.26+ 0.19+    MPO710191   +0.00 days
Orbital elements:
2022 OP6                                                 Earth MOID = 0.2380 AU
Epoch 2023 Sept. 13.0 TT = JDT 2460200.5                Veres                   
M 141.28433              (2000.0)            P               Q                  
n   0.32653296     Peri.  334.43722     +0.33582929     +0.93873644             
a   2.0885812      Node   315.07409     -0.84429197     +0.26356550             
e   0.4017695      Incl.    6.29334     -0.41760000     +0.22205209             
P   3.02           H   23.14          G   0.15           U   0                  
Residuals in seconds of arc
190706 F51  0.3-  0.0     220727 568  0.0   0.0     220825 H21 (0.6-  1.6+)
190706 F51 (0.3+  0.5-)   220727 568  0.0   0.0     220825 H21  0.0   1.0+
190706 F51  0.1+  0.1-    220729 807  0.2-  0.1-    220825 H21  0.2+  0.5+
190706 F51  0.1+  0.1+    220729 807  0.2-  0.0     220826 F51  0.1-  0.1-
190707 T14  0.0   0.2+    220729 807 (0.3-  0.8+)   220826 F51  0.0   0.0
190707 T14  0.0   0.1+    220803 654  0.1-  0.1-    220826 F51  0.0   0.0
190707 T14  0.1+  0.2+    220803 654  0.0   0.0     220828 H21  0.2+  0.4-
220726 F52  0.1+  0.1+    220803 568  0.0   0.0     220828 H21  0.3+  0.4+
220726 F52  0.0   0.0     220803 568  0.0   0.0     220901 F51  0.1-  0.1+
220726 F52  0.0   0.0     220803 568  0.0   0.0     220901 F51  0.0   0.1-
220726 F52  0.1+  0.0     220806 F52  0.0   0.2+    220901 F51  0.1+  0.0
220726 F52  0.1+  0.0     220806 F52  0.0   0.2+
220727 568  0.0   0.0     220806 F52  0.0   0.1+
Ephemeris:
2022 OP6                 a,e,i = 2.09, 0.40, 6                   q = 1.2495
Date    TT    R. A. (2000) Decl.     Delta      r    Elong.  Phase     V
2023 10 23    08 03 14.0 +24 38 01   2.6875  2.8848    91.2    20.2    28.6
...
2023 11 07    08 09 36.6 +24 26 37   2.4857  2.8996   104.7    19.3    28.4
...
2023 11 15    08 10 45.7 +24 26 50   2.3814  2.9063   112.4    18.3    28.3
...
2023 11 21    08 10 28.5 +24 30 08   2.3064  2.9106   118.5    17.4    28.2
2023 11 22    08 10 19.6 +24 30 57   2.2943  2.9113   119.6    17.2    28.2
2023 11 23    08 10 09.0 +24 31 50   2.2823  2.9120   120.6    17.0    28.2
...
2023 11 29    08 08 28.4 +24 38 38   2.2131  2.9157   127.0    15.7    28.0
...
2023 12 07    08 04 33.5 +24 51 19   2.1296  2.9199   136.0    13.6    27.9
...
2023 12 22    07 52 12.6 +25 22 11   2.0093  2.9253   154.0     8.5    27.6
A. U. Tomatic                (C) Copyright 2023 MPC           M.P.E.C. 2023-W94
    
    
More information about the Iaude
mailing list